Content
SEND FEEDBACK

Daily
Averages
Monthly
Summary
United States of America

ARIZONA CITY, ARIZONA


Home > North America > United States > Arizona
Elevation: 1390 feet     Latitude: 32 53N     Longitude: 111 45W

WEATHER
 
SELECT A DAY
Number of Records: 441,608;   Date Range: 1/1/95 - 8/12/14
 
SHARE

PRINT THIS DATA

[ ← Previous Day ]
WEATHER ALMANAC - JANUARY 23, 2013
[ Next Day → ]
[ °C ]   °F
Weather ElementAverageHighLow
Temperature56.2 °F78.8 °F (4:15 pm)28.4 °F (4:15 am)
Dewpoint27.8 °F30.2 °F (9:35 am)23 °F (12:55 am)
Humidity36.5 %86 % (4:15 am)16 % (4:15 pm)
Barometer30.14 in30.21 in (9:55 am)30.09 in (3:35 pm)
Wind Speed3.2 mph8.1 mph (5:15 am)
Weather ElementAverage
Visibility9.4 mi
Wind DirectionENE (78.1 °)

Weather ElementTotal
Precipitation---
Heating Degree Days11.4 (Base 65)
Growing Degree Days3.6 (Base 50)
Averaged from 69 records on January 23, 2013
WEATHER CONDITIONS BREAKOUT
WIND DIRECTION BREAKOUT
WEATHER BY HOUR - JANUARY 23, 2013
[ °C ]   °F
Local TimeTemperatureDewpointHumidityBarometerVisibilityWind DirectionWind SpeedGust SpeedPrecipitationEventsConditions
12:35 AM51.8 °F24.8 °F35 %30.14 in10.0 miCalmClear
12:55 AM48.2 °F23.0 °F37 %30.14 in10.0 miCalmClear
1:15 AM48.2 °F24.8 °F40 %30.13 in10.0 miCalmClear
1:35 AM48.2 °F23.0 °F37 %30.14 in10.0 miCalmClear
1:55 AM48.2 °F24.8 °F40 %30.15 in10.0 miCalmClear
2:15 AM46.4 °F23.0 °F40 %30.15 in10.0 miCalmClear
2:35 AM46.4 °F24.8 °F43 %30.15 in10.0 miNNE (30°)5.8 mphClear
2:55 AM46.4 °F24.8 °F43 %30.15 in10.0 miNorth (10°)4.6 mphClear
3:15 AM46.4 °F23.0 °F40 %30.15 in10.0 miNNE (30°)4.6 mphClear
3:35 AM42.8 °F23.0 °F46 %30.14 in10.0 miNE (50°)6.9 mphClear
3:55 AM46.4 °F24.8 °F43 %30.14 in10.0 miNE (50°)6.9 mphClear
4:15 AM28.4 °F24.8 °F86 %30.14 in10.0 miNE (50°)3.5 mphClear
4:35 AM37.4 °F24.8 °F60 %30.15 in10.0 miCalmClear
4:55 AM44.6 °F26.6 °F49 %30.15 in10.0 miNE (40°)6.9 mphClear
5:15 AM37.4 °F26.6 °F65 %30.15 in10.0 miNNE (20°)8.1 mphClear
5:35 AM37.4 °F26.6 °F65 %30.15 in10.0 miNE (50°)3.5 mphClear
5:55 AM39.2 °F26.6 °F61 %30.15 in10.0 miNNE (20°)6.9 mphClear
6:15 AM39.2 °F26.6 °F61 %30.15 in10.0 miNorth (10°)4.6 mphClear
6:35 AM42.8 °F26.6 °F53 %30.15 in10.0 miCalmClear
6:55 AM42.8 °F26.6 °F53 %30.17 in10.0 miCalmClear
7:15 AM42.8 °F26.6 °F53 %30.16 in10.0 miCalmClear
7:35 AM46.4 °F26.6 °F46 %30.17 in10.0 miCalmClear
7:55 AM42.8 °F26.6 °F53 %30.17 in10.0 miCalmClear
8:15 AM46.4 °F26.6 °F46 %30.18 in10.0 miCalmClear
8:35 AM50.0 °F28.4 °F43 %30.18 in10.0 miCalmClear
8:55 AM51.8 °F28.4 °F41 %30.18 in10.0 miCalmClear
9:15 AM51.8 °F28.4 °F41 %30.19 in10.0 miCalmClear
9:35 AM55.4 °F30.2 °F38 %30.20 in10.0 miCalmClear
9:55 AM53.6 °F30.2 °F41 %30.21 in10.0 miCalmClear
10:15 AM55.4 °F30.2 °F38 %30.21 in10.0 miCalmClear
10:35 AM60.8 °F28.4 °F29 %30.21 in10.0 miCalmClear
10:55 AM62.6 °F30.2 °F30 %30.20 in10.0 miCalmClear
11:15 AM64.4 °F28.4 °F26 %30.20 in10.0 miENE (60°)5.8 mphClear
11:35 AM64.4 °F28.4 °F26 %30.19 in10.0 miENE (60°)3.5 mphClear
11:55 AM62.6 °F30.2 °F30 %30.19 in10.0 miNE (40°)4.6 mphClear
12:15 PM60.8 °F28.4 °F29 %30.17 in10.0 miENE (60°)8.1 mphClear
12:35 PM69.8 °F28.4 °F21 %30.16 in10.0 miENE (60°)5.8 mphClear
12:55 PM60.8 °F30.2 °F31 %30.16 in10.0 miCalmClear
1:15 PM73.4 °F30.2 °F20 %30.14 in10.0 miENE (70°)3.5 mphClear
1:35 PM71.6 °F30.2 °F22 %30.13 in10.0 miNE (40°)5.8 mphClear
2:15 PM69.8 °F30.2 °F23 %30.11 in10.0 miNNE (30°)8.1 mphClear
2:35 PM73.4 °F30.2 °F20 %30.11 in10.0 miCalmClear
2:55 PM77.0 °F30.2 °F18 %30.10 in10.0 miCalmClear
3:15 PM77.0 °F30.2 °F18 %30.10 in5.0 miCalmClear
3:35 PM75.2 °F30.2 °F19 %30.09 in1.0 miENE (60°)4.6 mphClear
3:55 PM75.2 °F28.4 °F18 %30.09 in4.0 miENE (60°)4.6 mphClear
4:15 PM78.8 °F28.4 °F16 %30.09 in5.0 miCalmClear
4:35 PM78.8 °F28.4 °F16 %30.09 in10.0 miCalmClear
4:55 PM71.6 °F30.2 °F22 %30.09 in10.0 miNorth (350°)5.8 mphClear
5:15 PM73.4 °F30.2 °F20 %30.09 in10.0 miNorth (350°)5.8 mphClear
5:35 PM69.8 °F30.2 °F23 %30.09 in10.0 miNorth (360°)3.5 mphClear
5:55 PM62.6 °F30.2 °F30 %30.09 in10.0 miNorth (360°)4.6 mphClear
6:15 PM57.2 °F28.4 °F33 %30.09 in10.0 miNorth (360°)5.8 mphClear
6:35 PM60.8 °F28.4 °F29 %30.09 in10.0 miNorth (360°)8.1 mphClear
6:55 PM62.6 °F28.4 °F27 %30.09 in10.0 miNorth (360°)8.1 mphClear
7:15 PM62.6 °F28.4 °F27 %30.09 in10.0 miNorth (10°)6.9 mphClear
7:35 PM62.6 °F28.4 °F27 %30.09 in10.0 miNNE (20°)6.9 mphClear
7:55 PM62.6 °F28.4 °F27 %30.09 in10.0 miNorth (10°)3.5 mphClear
8:15 PM60.8 °F28.4 °F29 %30.10 in10.0 miSW (220°)5.8 mphClear
8:35 PM60.8 °F28.4 °F29 %30.11 in10.0 miWest (260°)4.6 mphClear
9:15 PM62.6 °F28.4 °F27 %30.12 in10.0 miWest (260°)3.5 mphClear
9:35 PM60.8 °F28.4 °F29 %30.12 in10.0 miWest (280°)3.5 mphClear
9:55 PM60.8 °F28.4 °F29 %30.12 in10.0 miCalmClear
10:15 PM51.8 °F28.4 °F41 %30.13 in1.8 miNNE (30°)4.6 mphClear
10:35 PM57.2 °F28.4 °F33 %30.13 in3.0 miNorth (10°)6.9 mphClear
10:55 PM51.8 °F30.2 °F44 %30.13 in10.0 miNNW (340°)5.8 mphClear
11:15 PM53.6 °F28.4 °F38 %30.13 in10.0 miNNW (340°)4.6 mphClear
11:35 PM37.4 °F28.4 °F70 %30.14 in10.0 miSSW (210°)6.9 mphClear
11:55 PM53.6 °F28.4 °F38 %30.14 in10.0 miCalmClear
Hourly data recorded from KCGZ, located miles away from Arizona City, Arizona







STORIES FROM OUR PARTNERS